Satellite-Ground Cal/Val Site Overpasses Predictions

Prediction of Satellite NPP Overpassing Cal/Val Site: Antarctic Dome C

Ground Cal/Val Site Location: Latitude: -75.10, Longitude: 123.35; Satellite-Ground Site NADIR distance within 100 km.

Table of predicted overpasses for the next 14.0 days since TLE Epoch: 10/23/2021
Interval Starting Time Ending Time Minimum Distance Time Minimum Distance (km)
1 10/23/2021 14:56:02 10/23/2021 14:56:30 10/23/2021 14:56:16 26.85
2 10/24/2021 14:37:20 10/24/2021 14:37:37 10/24/2021 14:37:29 80.24
3 10/25/2021 07:38:54 10/25/2021 07:39:22 10/25/2021 07:39:08 37.58
4 10/26/2021 07:20:10 10/26/2021 07:20:30 10/26/2021 07:20:20 72.12
5 10/28/2021 15:02:29 10/28/2021 15:02:52 10/28/2021 15:02:41 64.55
6 10/29/2021 14:43:39 10/29/2021 14:44:05 10/29/2021 14:43:52 44.78
7 10/30/2021 07:45:22 10/30/2021 07:45:42 10/30/2021 07:45:32 73.20
8 10/31/2021 07:26:31 10/31/2021 07:26:58 10/31/2021 07:26:45 34.45
9 11/03/2021 14:50:01 11/03/2021 14:50:30 11/03/2021 14:50:16 8.83
